owner,sensor,date,latitude,longitude,vertical_datum,direction_of_sea_water_velocity,sea_water_speed,upward_sea_water_velocity,qcFlag 
TABS,ioos:station:wmo:42046:1,2009-03-01T00:00:00Z,27.8903,-94.0367,2.0,204.7464799,12.68489259,-99999.0,'11111222,11111222,99999999' 
TABS,ioos:station:wmo:42046:1,2009-03-01T00:30:00Z,27.8903,-94.0367,2.0,201.8477299,13.70432049,-99999.0,'11111222,11111222,99999999' 
TABS,ioos:station:wmo:42046:1,2009-03-01T01:00:00Z,27.8903,-94.0367,2.0,201.3603198,16.17082867,-99999.0,'11111222,11111222,99999999' 
TABS,ioos:station:wmo:42046:1,2009-03-01T01:30:00Z,27.8903,-94.0367,2.0,198.0902366,14.20204563,-99999.0,'11111222,11111222,99999999' 
TABS,ioos:station:wmo:42046:1,2009-03-01T02:00:00Z,27.8903,-94.0367,2.0,214.4754474,18.00171381,-99999.0,'11111222,11111222,99999999' 
TABS,ioos:station:wmo:42046:1,2009-03-01T02:30:00Z,27.8903,-94.0367,2.0,219.7656269,14.80490797,-99999.0,'11111222,11111222,99999999' 
TABS,ioos:station:wmo:42046:1,2009-03-01T03:00:00Z,27.8903,-94.0367,2.0,195.3551061,14.53901303,-99999.0,'11111222,11111222,99999999' 
TABS,ioos:station:wmo:42046:1,2009-03-01T03:30:00Z,27.8903,-94.0367,2.0,197.1024785,11.15320582,-99999.0,'11111222,11111222,99999999' 
TABS,ioos:station:wmo:42046:1,2009-03-01T04:00:00Z,27.8903,-94.0367,2.0,172.0200881,13.47043058,-99999.0,'11111222,11111222,99999999' 
TABS,ioos:station:wmo:42046:1,2009-03-01T04:30:00Z,27.8903,-94.0367,2.0,194.9876339,13.72698437,-99999.0,'11111222,11111222,99999999' 
TABS,ioos:station:wmo:42046:1,2009-03-01T05:00:00Z,27.8903,-94.0367,2.0,201.2668,12.54426562,-99999.0,'11111222,11111222,99999999' 
TABS,ioos:station:wmo:42046:1,2009-03-01T05:30:00Z,27.8903,-94.0367,2.0,216.846733,10.0220008,-99999.0,'11111222,11111222,99999999' 
TABS,ioos:station:wmo:42046:1,2009-03-01T06:00:00Z,27.8903,-94.0367,2.0,203.5597621,10.40755495,-99999.0,'11111222,11111222,99999999' 
TABS,ioos:station:wmo:42046:1,2009-03-01T06:30:00Z,27.8903,-94.0367,2.0,251.5855613,8.674128198,-99999.0,'11133222,11111222,99999999' 
TABS,ioos:station:wmo:42046:1,2009-03-01T07:00:00Z,27.8903,-94.0367,2.0,227.7030358,8.395629816,-99999.0,'11133222,11111222,99999999' 
TABS,ioos:station:wmo:42046:1,2009-03-01T07:30:00Z,27.8903,-94.0367,2.0,211.0561207,7.424183457,-99999.0,'11133222,11111222,99999999' 
TABS,ioos:station:wmo:42046:1,2009-03-01T08:00:00Z,27.8903,-94.0367,2.0,216.5446764,3.174051039,-99999.0,'11133222,11111222,99999999' 
TABS,ioos:station:wmo:42046:1,2009-03-01T08:30:00Z,27.8903,-94.0367,2.0,257.5921896,6.655441383,-99999.0,'11133222,11111222,99999999' 
TABS,ioos:station:wmo:42046:1,2009-03-01T09:00:00Z,27.8903,-94.0367,2.0,231.8492263,4.743184584,-99999.0,'11133222,11111222,99999999' 
TABS,ioos:station:wmo:42046:1,2009-03-01T09:30:00Z,27.8903,-94.0367,2.0,247.6636595,7.762402978,-99999.0,'11133222,11111222,99999999' 
TABS,ioos:station:wmo:42046:1,2009-03-01T10:00:00Z,27.8903,-94.0367,2.0,296.939886,1.368502832,-99999.0,'11133222,11111222,99999999' 
TABS,ioos:station:wmo:42046:1,2009-03-01T10:30:00Z,27.8903,-94.0367,2.0,60.38853708,4.796436177,-99999.0,'11133222,11111222,99999999' 
TABS,ioos:station:wmo:42046:1,2009-03-01T11:00:00Z,27.8903,-94.0367,2.0,209.0431154,4.964242138,-99999.0,'11133222,11111222,99999999' 
TABS,ioos:station:wmo:42046:1,2009-03-01T11:30:00Z,27.8903,-94.0367,2.0,174.6698511,3.444894773,-99999.0,'11133222,11111222,99999999' 
TABS,ioos:station:wmo:42046:1,2009-03-01T12:00:00Z,27.8903,-94.0367,2.0,196.3376855,5.012404613,-99999.0,'11133222,11111222,99999999' 
TABS,ioos:station:wmo:42046:1,2009-03-01T12:30:00Z,27.8903,-94.0367,2.0,199.2986827,6.081751392,-99999.0,'11133222,11111222,99999999' 
TABS,ioos:station:wmo:42046:1,2009-03-01T13:00:00Z,27.8903,-94.0367,2.0,172.472796,6.717886572,-99999.0,'11133222,11111222,99999999' 
TABS,ioos:station:wmo:42046:1,2009-03-01T13:30:00Z,27.8903,-94.0367,2.0,131.5316736,8.883388993,-99999.0,'11133222,11111222,99999999' 
TABS,ioos:station:wmo:42046:1,2009-03-01T14:00:00Z,27.8903,-94.0367,2.0,163.8216725,6.424406587,-99999.0,'11133222,11111222,99999999' 
TABS,ioos:station:wmo:42046:1,2009-03-01T14:30:00Z,27.8903,-94.0367,2.0,231.8866893,6.545540467,-99999.0,'11133222,11111222,99999999' 
TABS,ioos:station:wmo:42046:1,2009-03-01T15:00:00Z,27.8903,-94.0367,2.0,190.7892347,5.181602069,-99999.0,'11133222,11111222,99999999' 
TABS,ioos:station:wmo:42046:1,2009-03-01T15:30:00Z,27.8903,-94.0367,2.0,169.9840325,4.254844298,-99999.0,'11133222,11111222,99999999' 
TABS,ioos:station:wmo:42046:1,2009-03-01T16:00:00Z,27.8903,-94.0367,2.0,153.4928508,4.414000453,-99999.0,'11133222,11111222,99999999' 
TABS,ioos:station:wmo:42046:1,2009-03-01T16:30:00Z,27.8903,-94.0367,2.0,130.3110627,4.498110715,-99999.0,'11133222,11111222,99999999' 
TABS,ioos:station:wmo:42046:1,2009-03-01T17:00:00Z,27.8903,-94.0367,2.0,121.6174171,3.757778599,-99999.0,'11133222,11111222,99999999' 
TABS,ioos:station:wmo:42046:1,2009-03-01T17:30:00Z,27.8903,-94.0367,2.0,173.3385035,1.379311422,-99999.0,'11133222,11111222,99999999' 
TABS,ioos:station:wmo:42046:1,2009-03-01T18:00:00Z,27.8903,-94.0367,2.0,203.3046256,2.830971565,-99999.0,'11133222,11111222,99999999' 
TABS,ioos:station:wmo:42046:1,2009-03-01T18:30:00Z,27.8903,-94.0367,2.0,82.87500031,2.741167634,-99999.0,'11133222,11111222,99999999' 
TABS,ioos:station:wmo:42046:1,2009-03-01T19:00:00Z,27.8903,-94.0367,2.0,107.2330755,2.261526033,-99999.0,'11133222,11111222,99999999' 
TABS,ioos:station:wmo:42046:1,2009-03-01T19:30:00Z,27.8903,-94.0367,2.0,121.6383544,3.641167395,-99999.0,'11133222,11111222,99999999' 
TABS,ioos:station:wmo:42046:1,2009-03-01T20:00:00Z,27.8903,-94.0367,2.0,95.07369287,2.148418023,-99999.0,'11133222,11111222,99999999' 
TABS,ioos:station:wmo:42046:1,2009-03-01T20:30:00Z,27.8903,-94.0367,2.0,84.58166393,3.706561749,-99999.0,'11133222,11111222,99999999' 
TABS,ioos:station:wmo:42046:1,2009-03-01T21:00:00Z,27.8903,-94.0367,2.0,79.37486988,6.399726557,-99999.0,'11133222,11111222,99999999' 
TABS,ioos:station:wmo:42046:1,2009-03-01T21:30:00Z,27.8903,-94.0367,2.0,116.7357654,9.002449667,-99999.0,'11133222,11111222,99999999' 
TABS,ioos:station:wmo:42046:1,2009-03-01T22:00:00Z,27.8903,-94.0367,2.0,121.9825479,8.005104621,-99999.0,'11133222,11111222,99999999' 
TABS,ioos:station:wmo:42046:1,2009-03-01T22:30:00Z,27.8903,-94.0367,2.0,154.7858624,4.741782365,-99999.0,'11133222,11111222,99999999' 
TABS,ioos:station:wmo:42046:1,2009-03-01T23:00:00Z,27.8903,-94.0367,2.0,150.5170161,6.237772038,-99999.0,'11133222,11111222,99999999' 
TABS,ioos:station:wmo:42046:1,2009-03-01T23:30:00Z,27.8903,-94.0367,2.0,151.7923646,8.737671314,-99999.0,'11133222,11111222,99999999' 
TABS,ioos:station:wmo:42046:1,2009-03-02T00:00:00Z,27.8903,-94.0367,2.0,152.9470805,9.982169103,-99999.0,'11133222,11111222,99999999' 
TABS,ioos:station:wmo:42046:1,2009-03-02T00:30:00Z,27.8903,-94.0367,2.0,134.0099108,9.412996335,-99999.0,'11133222,11111222,99999999' 
TABS,ioos:station:wmo:42046:1,2009-03-02T01:00:00Z,27.8903,-94.0367,2.0,149.5802811,10.11201266,-99999.0,'11111222,11111222,99999999' 
TABS,ioos:station:wmo:42046:1,2009-03-02T01:30:00Z,27.8903,-94.0367,2.0,156.3133016,10.33025169,-99999.0,'11111222,11111222,99999999' 
TABS,ioos:station:wmo:42046:1,2009-03-02T02:00:00Z,27.8903,-94.0367,2.0,167.6255907,10.45283215,-99999.0,'11111222,11111222,99999999' 
TABS,ioos:station:wmo:42046:1,2009-03-02T02:30:00Z,27.8903,-94.0367,2.0,170.1254163,11.42931319,-99999.0,'11111222,11111222,99999999' 
TABS,ioos:station:wmo:42046:1,2009-03-02T03:00:00Z,27.8903,-94.0367,2.0,173.5030064,11.31264779,-99999.0,'11111222,11111222,99999999' 
TABS,ioos:station:wmo:42046:1,2009-03-02T03:30:00Z,27.8903,-94.0367,2.0,167.4053462,10.41049951,-99999.0,'11111222,11111222,99999999' 
TABS,ioos:station:wmo:42046:1,2009-03-02T04:00:00Z,27.8903,-94.0367,2.0,177.4671144,11.54127376,-99999.0,'11111222,11111222,99999999' 
TABS,ioos:station:wmo:42046:1,2009-03-02T04:30:00Z,27.8903,-94.0367,2.0,181.5724534,9.473568493,-99999.0,'11133222,11111222,99999999' 
TABS,ioos:station:wmo:42046:1,2009-03-02T05:00:00Z,27.8903,-94.0367,2.0,183.7158997,8.948815564,-99999.0,'11133222,11111222,99999999' 
TABS,ioos:station:wmo:42046:1,2009-03-02T05:30:00Z,27.8903,-94.0367,2.0,214.647637,6.138615479,-99999.0,'11133222,11111222,99999999' 
TABS,ioos:station:wmo:42046:1,2009-03-02T06:00:00Z,27.8903,-94.0367,2.0,221.4293736,8.402594837,-99999.0,'11133222,11111222,99999999' 
TABS,ioos:station:wmo:42046:1,2009-03-02T06:30:00Z,27.8903,-94.0367,2.0,207.203737,4.812317529,-99999.0,'11133222,11111222,99999999' 
TABS,ioos:station:wmo:42046:1,2009-03-02T07:00:00Z,27.8903,-94.0367,2.0,267.5425046,5.364932432,-99999.0,'11133222,11111222,99999999' 
TABS,ioos:station:wmo:42046:1,2009-03-02T07:30:00Z,27.8903,-94.0367,2.0,271.3203635,6.511727881,-99999.0,'11133222,11111222,99999999' 
TABS,ioos:station:wmo:42046:1,2009-03-02T08:00:00Z,27.8903,-94.0367,2.0,273.0315752,4.916879091,-99999.0,'11133222,11111222,99999999' 
TABS,ioos:station:wmo:42046:1,2009-03-02T08:30:00Z,27.8903,-94.0367,2.0,262.2627074,6.388153098,-99999.0,'11133222,11111222,99999999' 
TABS,ioos:station:wmo:42046:1,2009-03-02T09:00:00Z,27.8903,-94.0367,2.0,294.9221332,5.458250636,-99999.0,'11133222,11111222,99999999' 
TABS,ioos:station:wmo:42046:1,2009-03-02T09:30:00Z,27.8903,-94.0367,2.0,284.2586349,7.511384693,-99999.0,'11133222,11111222,99999999' 
TABS,ioos:station:wmo:42046:1,2009-03-02T10:00:00Z,27.8903,-94.0367,2.0,327.1409504,5.54758506,-99999.0,'11133222,11111222,99999999' 
TABS,ioos:station:wmo:42046:1,2009-03-02T10:30:00Z,27.8903,-94.0367,2.0,264.8646841,4.357487808,-99999.0,'11133222,11111222,99999999' 
TABS,ioos:station:wmo:42046:1,2009-03-02T11:00:00Z,27.8903,-94.0367,2.0,317.4849586,7.176809876,-99999.0,'11133222,11111222,99999999' 
TABS,ioos:station:wmo:42046:1,2009-03-02T11:30:00Z,27.8903,-94.0367,2.0,329.0365263,3.148714023,-99999.0,'11133222,11111222,99999999' 
TABS,ioos:station:wmo:42046:1,2009-03-02T12:00:00Z,27.8903,-94.0367,2.0,296.1782831,3.309456149,-99999.0,'11133222,11111222,99999999' 
TABS,ioos:station:wmo:42046:1,2009-03-02T12:30:00Z,27.8903,-94.0367,2.0,306.8702323,1.85,-99999.0,'11133222,11111222,99999999' 
TABS,ioos:station:wmo:42046:1,2009-03-02T13:00:00Z,27.8903,-94.0367,2.0,334.5503243,3.67679208,-99999.0,'11133222,11111222,99999999' 
TABS,ioos:station:wmo:42046:1,2009-03-02T13:30:00Z,27.8903,-94.0367,2.0,193.0057464,3.776890255,-99999.0,'11133222,11111222,99999999' 
TABS,ioos:station:wmo:42046:1,2009-03-02T14:00:00Z,27.8903,-94.0367,2.0,356.7109755,0.871435597,-99999.0,'11133222,11111222,99999999' 
TABS,ioos:station:wmo:42046:1,2009-03-02T14:30:00Z,27.8903,-94.0367,2.0,286.3364256,1.208801059,-99999.0,'11133222,11111222,99999999' 
TABS,ioos:station:wmo:42046:1,2009-03-02T15:00:00Z,27.8903,-94.0367,2.0,281.3103269,0.662872537,-99999.0,'11133222,11111222,99999999' 
TABS,ioos:station:wmo:42046:1,2009-03-02T15:30:00Z,27.8903,-94.0367,2.0,119.5777695,0.850881895,-99999.0,'11133222,11111222,99999999' 
TABS,ioos:station:wmo:42046:1,2009-03-02T16:00:00Z,27.8903,-94.0367,2.0,265.4987073,3.440610411,-99999.0,'11133222,11111222,99999999' 
TABS,ioos:station:wmo:42046:1,2009-03-02T16:30:00Z,27.8903,-94.0367,2.0,282.6562807,3.423171045,-99999.0,'11133222,11111222,99999999' 
TABS,ioos:station:wmo:42046:1,2009-03-02T17:00:00Z,27.8903,-94.0367,2.0,265.15559,3.552689122,-99999.0,'11133222,11111222,99999999' 
TABS,ioos:station:wmo:42046:1,2009-03-02T17:30:00Z,27.8903,-94.0367,2.0,257.9806047,3.169479453,-99999.0,'11133222,11111222,99999999' 
TABS,ioos:station:wmo:42046:1,2009-03-02T18:00:00Z,27.8903,-94.0367,2.0,263.624273,5.403415586,-99999.0,'11133222,11111222,99999999' 
TABS,ioos:station:wmo:42046:1,2009-03-02T18:30:00Z,27.8903,-94.0367,2.0,276.3405978,5.976554191,-99999.0,'11133222,11111222,99999999' 
TABS,ioos:station:wmo:42046:1,2009-03-02T19:00:00Z,27.8903,-94.0367,2.0,264.3728465,4.079656848,-99999.0,'11133222,11111222,99999999' 
TABS,ioos:station:wmo:42046:1,2009-03-02T19:30:00Z,27.8903,-94.0367,2.0,262.3304037,4.570886129,-99999.0,'11133222,11111222,99999999' 
TABS,ioos:station:wmo:42046:1,2009-03-02T20:00:00Z,27.8903,-94.0367,2.0,275.7302954,5.909526208,-99999.0,'11133222,11111222,99999999' 
TABS,ioos:station:wmo:42046:1,2009-03-02T20:30:00Z,27.8903,-94.0367,2.0,260.8301615,5.145755532,-99999.0,'11133222,11111222,99999999' 
TABS,ioos:station:wmo:42046:1,2009-03-02T21:00:00Z,27.8903,-94.0367,2.0,281.8763112,6.948733698,-99999.0,'11133222,11111222,99999999' 
TABS,ioos:station:wmo:42046:1,2009-03-02T21:30:00Z,27.8903,-94.0367,2.0,290.1710272,6.786199231,-99999.0,'11133222,11111222,99999999' 
TABS,ioos:station:wmo:42046:1,2009-03-02T22:00:00Z,27.8903,-94.0367,2.0,300.1778776,5.749173854,-99999.0,'11133222,11111222,99999999' 
TABS,ioos:station:wmo:42046:1,2009-03-02T22:30:00Z,27.8903,-94.0367,2.0,302.022502,7.241905827,-99999.0,'11133222,11111222,99999999' 
TABS,ioos:station:wmo:42046:1,2009-03-02T23:00:00Z,27.8903,-94.0367,2.0,286.4919087,6.340851678,-99999.0,'11133222,11111222,99999999' 
TABS,ioos:station:wmo:42046:1,2009-03-02T23:30:00Z,27.8903,-94.0367,2.0,291.3984731,4.220959607,-99999.0,'11133222,11111222,99999999' 
TABS,ioos:station:wmo:42046:1,2009-03-03T00:00:00Z,27.8903,-94.0367,2.0,39.93881781,4.408321676,-99999.0,'11133222,11111222,99999999' 
TABS,ioos:station:wmo:42046:1,2009-03-03T00:30:00Z,27.8903,-94.0367,2.0,98.09142232,4.191729953,-99999.0,'11133222,11111222,99999999' 
TABS,ioos:station:wmo:42046:1,2009-03-03T01:00:00Z,27.8903,-94.0367,2.0,126.3799425,11.2284104,-99999.0,'11111222,11111222,99999999' 
TABS,ioos:station:wmo:42046:1,2009-03-03T01:30:00Z,27.8903,-94.0367,2.0,130.4679636,15.39234225,-99999.0,'11111222,11111222,99999999' 
TABS,ioos:station:wmo:42046:1,2009-03-03T02:00:00Z,27.8903,-94.0367,2.0,121.84273,29.51151978,-99999.0,'11111222,11111222,99999999' 
TABS,ioos:station:wmo:42046:1,2009-03-03T02:30:00Z,27.8903,-94.0367,2.0,122.1691511,19.64608103,-99999.0,'11111222,11111222,99999999' 
TABS,ioos:station:wmo:42046:1,2009-03-03T03:00:00Z,27.8903,-94.0367,2.0,130.1026459,12.59003574,-99999.0,'11111222,11111222,99999999' 
TABS,ioos:station:wmo:42046:1,2009-03-03T03:30:00Z,27.8903,-94.0367,2.0,164.6695045,6.013992019,-99999.0,'11133222,11111222,99999999' 
TABS,ioos:station:wmo:42046:1,2009-03-03T04:00:00Z,27.8903,-94.0367,2.0,199.0253511,5.521630194,-99999.0,'11133222,11111222,99999999' 
TABS,ioos:station:wmo:42046:1,2009-03-03T04:30:00Z,27.8903,-94.0367,2.0,209.8803727,6.804564644,-99999.0,'11133222,11111222,99999999' 
TABS,ioos:station:wmo:42046:1,2009-03-03T05:00:00Z,27.8903,-94.0367,2.0,220.427916,7.540537116,-99999.0,'11133222,11111222,99999999' 
TABS,ioos:station:wmo:42046:1,2009-03-03T05:30:00Z,27.8903,-94.0367,2.0,231.2349435,8.528663436,-99999.0,'11133222,11111222,99999999' 
TABS,ioos:station:wmo:42046:1,2009-03-03T06:00:00Z,27.8903,-94.0367,2.0,254.3060175,6.876336234,-99999.0,'11133222,11111222,99999999' 
TABS,ioos:station:wmo:42046:1,2009-03-03T06:30:00Z,27.8903,-94.0367,2.0,251.1355005,8.443518224,-99999.0,'11133222,11111222,99999999' 
TABS,ioos:station:wmo:42046:1,2009-03-03T07:00:00Z,27.8903,-94.0367,2.0,256.3491919,9.364512801,-99999.0,'11133222,11111222,99999999' 
TABS,ioos:station:wmo:42046:1,2009-03-03T07:30:00Z,27.8903,-94.0367,2.0,275.1742005,7.540722777,-99999.0,'11133222,11111222,99999999' 
TABS,ioos:station:wmo:42046:1,2009-03-03T08:00:00Z,27.8903,-94.0367,2.0,273.4642792,7.94451383,-99999.0,'11133222,11111222,99999999' 
TABS,ioos:station:wmo:42046:1,2009-03-03T08:30:00Z,27.8903,-94.0367,2.0,278.8837115,6.670007496,-99999.0,'11133222,11111222,99999999' 
TABS,ioos:station:wmo:42046:1,2009-03-03T09:00:00Z,27.8903,-94.0367,2.0,308.2436777,8.594469152,-99999.0,'11133222,11111222,99999999' 
TABS,ioos:station:wmo:42046:1,2009-03-03T09:30:00Z,27.8903,-94.0367,2.0,300.2233035,8.621954535,-99999.0,'11133222,11111222,99999999' 
TABS,ioos:station:wmo:42046:1,2009-03-03T10:00:00Z,27.8903,-94.0367,2.0,326.8073515,6.393160408,-99999.0,'11133222,11111222,99999999' 
TABS,ioos:station:wmo:42046:1,2009-03-03T10:30:00Z,27.8903,-94.0367,2.0,338.3453503,7.262568416,-99999.0,'11133222,11111222,99999999' 
TABS,ioos:station:wmo:42046:1,2009-03-03T11:00:00Z,27.8903,-94.0367,2.0,325.4396196,5.658595232,-99999.0,'11133222,11111222,99999999' 
TABS,ioos:station:wmo:42046:1,2009-03-03T11:30:00Z,27.8903,-94.0367,2.0,313.2004902,3.827335888,-99999.0,'11133222,11111222,99999999' 
TABS,ioos:station:wmo:42046:1,2009-03-03T12:00:00Z,27.8903,-94.0367,2.0,354.8151695,5.532639515,-99999.0,'11133222,11111222,99999999' 
TABS,ioos:station:wmo:42046:1,2009-03-03T12:30:00Z,27.8903,-94.0367,2.0,116.4389262,12.19554427,-99999.0,'11111222,11111222,99999999' 
TABS,ioos:station:wmo:42046:1,2009-03-03T13:00:00Z,27.8903,-94.0367,2.0,103.9992696,11.28518498,-99999.0,'11111222,11111222,99999999' 
TABS,ioos:station:wmo:42046:1,2009-03-03T13:30:00Z,27.8903,-94.0367,2.0,113.2332759,15.15933046,-99999.0,'11111222,11111222,99999999' 
TABS,ioos:station:wmo:42046:1,2009-03-03T14:00:00Z,27.8903,-94.0367,2.0,110.9068709,17.00990888,-99999.0,'11111222,11111222,99999999' 
TABS,ioos:station:wmo:42046:1,2009-03-03T14:30:00Z,27.8903,-94.0367,2.0,114.6173989,17.76464185,-99999.0,'11111222,11111222,99999999' 
TABS,ioos:station:wmo:42046:1,2009-03-03T15:00:00Z,27.8903,-94.0367,2.0,107.5629713,17.66336604,-99999.0,'11111222,11111222,99999999' 
TABS,ioos:station:wmo:42046:1,2009-03-03T15:30:00Z,27.8903,-94.0367,2.0,114.4767789,17.30524198,-99999.0,'11111222,11111222,99999999' 
TABS,ioos:station:wmo:42046:1,2009-03-03T16:00:00Z,27.8903,-94.0367,2.0,114.3587368,16.14743633,-99999.0,'11111222,11111222,99999999' 
TABS,ioos:station:wmo:42046:1,2009-03-03T16:30:00Z,27.8903,-94.0367,2.0,115.6384556,16.59379402,-99999.0,'11111222,11111222,99999999' 
TABS,ioos:station:wmo:42046:1,2009-03-03T17:00:00Z,27.8903,-94.0367,2.0,109.6040423,17.04822571,-99999.0,'11111222,11111222,99999999' 
TABS,ioos:station:wmo:42046:1,2009-03-03T17:30:00Z,27.8903,-94.0367,2.0,107.4936368,17.13236995,-99999.0,'11111222,11111222,99999999' 
TABS,ioos:station:wmo:42046:1,2009-03-03T18:00:00Z,27.8903,-94.0367,2.0,98.00789316,13.92579262,-99999.0,'11111222,11111222,99999999' 
TABS,ioos:station:wmo:42046:1,2009-03-03T18:30:00Z,27.8903,-94.0367,2.0,94.44498655,13.28997366,-99999.0,'11111222,11111222,99999999' 
TABS,ioos:station:wmo:42046:1,2009-03-03T19:00:00Z,27.8903,-94.0367,2.0,83.97090201,13.42425417,-99999.0,'11111222,11111222,99999999' 
TABS,ioos:station:wmo:42046:1,2009-03-03T19:30:00Z,27.8903,-94.0367,2.0,83.92543746,11.43420308,-99999.0,'11111222,11111222,99999999' 
TABS,ioos:station:wmo:42046:1,2009-03-03T20:00:00Z,27.8903,-94.0367,2.0,68.19864149,15.02460981,-99999.0,'11111222,11111222,99999999' 
TABS,ioos:station:wmo:42046:1,2009-03-03T20:30:00Z,27.8903,-94.0367,2.0,70.53449013,14.94417947,-99999.0,'11111222,11111222,99999999' 
TABS,ioos:station:wmo:42046:1,2009-03-03T21:00:00Z,27.8903,-94.0367,2.0,53.8396044,15.50718866,-99999.0,'11111222,11111222,99999999' 
TABS,ioos:station:wmo:42046:1,2009-03-03T21:30:00Z,27.8903,-94.0367,2.0,57.03661334,17.49665111,-99999.0,'11111222,11111222,99999999' 
TABS,ioos:station:wmo:42046:1,2009-03-03T22:00:00Z,27.8903,-94.0367,2.0,59.97110372,19.76269718,-99999.0,'11111222,11111222,99999999' 
TABS,ioos:station:wmo:42046:1,2009-03-03T22:30:00Z,27.8903,-94.0367,2.0,59.19986971,22.82998467,-99999.0,'11111222,11111222,99999999' 
TABS,ioos:station:wmo:42046:1,2009-03-03T23:00:00Z,27.8903,-94.0367,2.0,60.00028328,23.14014909,-99999.0,'11111222,11111222,99999999' 
TABS,ioos:station:wmo:42046:1,2009-03-03T23:30:00Z,27.8903,-94.0367,2.0,70.17949881,22.88577069,-99999.0,'11111222,11111222,99999999' 
TABS,ioos:station:wmo:42046:1,2009-03-04T00:00:00Z,27.8903,-94.0367,2.0,70.12556565,22.532015,-99999.0,'11111222,11111222,99999999' 
TABS,ioos:station:wmo:42046:1,2009-03-04T00:30:00Z,27.8903,-94.0367,2.0,64.03236004,19.73213622,-99999.0,'11111222,11111222,99999999' 
TABS,ioos:station:wmo:42046:1,2009-03-04T01:00:00Z,27.8903,-94.0367,2.0,68.39115505,18.79061734,-99999.0,'11111222,11111222,99999999' 
TABS,ioos:station:wmo:42046:1,2009-03-04T01:30:00Z,27.8903,-94.0367,2.0,69.29464992,17.96002506,-99999.0,'11111222,11111222,99999999' 
TABS,ioos:station:wmo:42046:1,2009-03-04T02:00:00Z,27.8903,-94.0367,2.0,84.2689414,13.91957614,-99999.0,'11111222,11111222,99999999' 
TABS,ioos:station:wmo:42046:1,2009-03-04T02:30:00Z,27.8903,-94.0367,2.0,77.0054136,14.40899719,-99999.0,'11111222,11111222,99999999' 
TABS,ioos:station:wmo:42046:1,2009-03-04T03:00:00Z,27.8903,-94.0367,2.0,68.28453122,14.86492852,-99999.0,'11111222,11111222,99999999' 
TABS,ioos:station:wmo:42046:1,2009-03-04T03:30:00Z,27.8903,-94.0367,2.0,85.66067864,11.10182417,-99999.0,'11111222,11111222,99999999' 
TABS,ioos:station:wmo:42046:1,2009-03-04T04:00:00Z,27.8903,-94.0367,2.0,83.74437784,9.727923725,-99999.0,'11133222,11111222,99999999' 
TABS,ioos:station:wmo:42046:1,2009-03-04T04:30:00Z,27.8903,-94.0367,2.0,68.23848547,8.010898826,-99999.0,'11133222,11111222,99999999' 
TABS,ioos:station:wmo:42046:1,2009-03-04T05:00:00Z,27.8903,-94.0367,2.0,91.06708304,8.591489976,-99999.0,'11133222,11111222,99999999' 
TABS,ioos:station:wmo:42046:1,2009-03-04T05:30:00Z,27.8903,-94.0367,2.0,69.97079607,6.364966614,-99999.0,'11133222,11111222,99999999' 
TABS,ioos:station:wmo:42046:1,2009-03-04T06:00:00Z,27.8903,-94.0367,2.0,56.08649232,6.398515453,-99999.0,'11133222,11111222,99999999' 
TABS,ioos:station:wmo:42046:1,2009-03-04T06:30:00Z,27.8903,-94.0367,2.0,49.16840414,5.934180651,-99999.0,'11133222,11111222,99999999' 
TABS,ioos:station:wmo:42046:1,2009-03-04T07:00:00Z,27.8903,-94.0367,2.0,43.08760448,4.025680067,-99999.0,'11133222,11111222,99999999' 
TABS,ioos:station:wmo:42046:1,2009-03-04T07:30:00Z,27.8903,-94.0367,2.0,13.14818769,5.31944546,-99999.0,'11133222,11111222,99999999' 
TABS,ioos:station:wmo:42046:1,2009-03-04T08:00:00Z,27.8903,-94.0367,2.0,11.02688937,6.744516291,-99999.0,'11133222,11111222,99999999' 
TABS,ioos:station:wmo:42046:1,2009-03-04T08:30:00Z,27.8903,-94.0367,2.0,349.1376846,7.535011612,-99999.0,'11133222,11111222,99999999' 
TABS,ioos:station:wmo:42046:1,2009-03-04T09:00:00Z,27.8903,-94.0367,2.0,8.821505007,10.43341267,-99999.0,'11111222,11111222,99999999' 
TABS,ioos:station:wmo:42046:1,2009-03-04T09:30:00Z,27.8903,-94.0367,2.0,344.5086142,8.498764616,-99999.0,'11133222,11111222,99999999' 
TABS,ioos:station:wmo:42046:1,2009-03-04T10:00:00Z,27.8903,-94.0367,2.0,353.6216916,9.901292845,-99999.0,'11133222,11111222,99999999' 
TABS,ioos:station:wmo:42046:1,2009-03-04T10:30:00Z,27.8903,-94.0367,2.0,346.5283244,9.357478293,-99999.0,'11133222,11111222,99999999' 
TABS,ioos:station:wmo:42046:1,2009-03-04T11:00:00Z,27.8903,-94.0367,2.0,331.8900488,11.60941428,-99999.0,'11111222,11111222,99999999' 
TABS,ioos:station:wmo:42046:1,2009-03-04T11:30:00Z,27.8903,-94.0367,2.0,339.8277579,11.88930612,-99999.0,'11111222,11111222,99999999' 
TABS,ioos:station:wmo:42046:1,2009-03-04T12:00:00Z,27.8903,-94.0367,2.0,327.8146358,12.46563677,-99999.0,'11111222,11111222,99999999' 
TABS,ioos:station:wmo:42046:1,2009-03-04T12:30:00Z,27.8903,-94.0367,2.0,338.8112233,13.03098615,-99999.0,'11111222,11111222,99999999' 
TABS,ioos:station:wmo:42046:1,2009-03-04T13:00:00Z,27.8903,-94.0367,2.0,334.2569922,14.3436153,-99999.0,'11111222,11111222,99999999' 
TABS,ioos:station:wmo:42046:1,2009-03-04T13:30:00Z,27.8903,-94.0367,2.0,336.7681418,13.4615378,-99999.0,'11111222,11111222,99999999' 
TABS,ioos:station:wmo:42046:1,2009-03-04T14:00:00Z,27.8903,-94.0367,2.0,325.4683184,15.10056953,-99999.0,'11111222,11111222,99999999' 
TABS,ioos:station:wmo:42046:1,2009-03-04T14:30:00Z,27.8903,-94.0367,2.0,332.7266541,15.18853515,-99999.0,'11111222,11111222,99999999' 
TABS,ioos:station:wmo:42046:1,2009-03-04T15:00:00Z,27.8903,-94.0367,2.0,324.316168,15.46331142,-99999.0,'11111222,11111222,99999999' 
TABS,ioos:station:wmo:42046:1,2009-03-04T15:30:00Z,27.8903,-94.0367,2.0,320.4614613,15.67700545,-99999.0,'11111222,11111222,99999999' 
TABS,ioos:station:wmo:42046:1,2009-03-04T16:00:00Z,27.8903,-94.0367,2.0,309.544502,14.87419914,-99999.0,'11111222,11111222,99999999' 